Tracking 20041 objects as of 22-Nov-2019
Live streaming from Space Station
objects crossing your sky now

TRACE

Track TRACE now!
10-day predictions
TRACE is classified as:


NORAD ID: 25280
Int'l Code: 1998-020A
Perigee: 517.9 km
Apogee: 549.0 km
Inclination: 97.5 °
Period: 95.2 minutes
Semi major axis: 6904 km
RCS: 1.591 m2 (large)
Launch date: April 2, 1998
Source: United States (US)
Launch site: Pegasus launched from Western Range Air Space (WRAS)

Coordinates with SOHO; image the solar corona and transition region at high angular and temporal resolution.
aabbcc
Your satellite tracking list
Your tracking list is empty




NASA's NSSDC Master Catalog

Two Line Element Set (TLE):
1 25280U 98020A   19325.64082343 +.00000564 +00000-0 +35226-4 0  9993
2 25280 097.4725 154.8718 0022519 205.1557 154.8580 15.13246891184544
Source of the keplerian elements: AFSPC